Weather in Chamonix

France     45°55′05″N   6°51′58″E
temp.,
°C
wind,
m/s
gust,
m/s
humid.,
%
clouds,
%
prec.,
mm/h
press.,
hPa
HPBL,
m
18 august, thu
thu1823:00+10nne229499 0.2 101622
02:00+9wsw0194100 0.2 101611
05:00+9ssw0196100 0.2 101543
08:00+11nne228993 0.3 1014105
11:00+14nnw227875 0.4 1013687
14:00+13nw338986 4.5 1014464
17:00+12wnw2294100 4.9 1014265
20:00+10s3393100 14.6 1015160
19 august, fri
fri1923:00+10s2291100 4.3 101577
02:00+10se2294100 18.6 1014115
05:00+9ssw0098100 7.9 101580
08:00+10nnw23100100 16.1 1016155
11:00+10nne2394100 2.8 1018222
14:00+11nne2387100 3.4 1018363
17:00+14n237250 0.1 1018866
20:00+12nnw238784 0.8 1019107
20 august, sat
sat2023:00+11ne2293100 0.3 102051
02:00+9ene229262 0.4 102023
05:00+10ene228939 0.0 101927
08:00+11ene11847 0.0 102080
11:00+14nnw226439 0.0 10191176
14:00+15nw226099 0.2 10191222
17:00+15nw226958 0.2 1018832
20:00+13nw228865 0.6 1019176
21 august, sun
sun2123:00+11ene11947 0.1 101930
02:00+9se119331 0.1 101810
05:00+8sse1191100 0.0 101710
08:00+11ese1185100 0.0 101640
11:00+14nw217465 0.0 1015776
14:00+13nw3381100 1.1 1015582
17:00+12nw2285100 1.7 1015433
20:00+10nnw228999 2.6 101659
22 august, mon
mon2223:00+8ne33919 0.3 101650
02:00+7ene32926 0.3 101622
05:00+6ene33939 0.0 101642
08:00+8ene22881 0.0 1016118
11:00+12n336824 0.0 1015887
14:00+16n325369 0.0 10141508
17:00+15nw326145 0.0 10151030
20:00+13nw227194 0.0 101582